Regional Weather Roundup
Issued by NWS

Home | Current Version | Previous Version | Graphics & Text | Print | Product List | Glossary On
Versions: 1 2 3 4 5 6 7 8 9 10 11 12 13 14 15 16 17 18 19 20 21 22 23 24 25 26 27 28 29 30 31 32 33 34 35 36 37 38 39 40 41 42 43 44 45 46 47 48 49 50
596
ASUS45 KABQ 240701
RWRNM
NEW MEXICO REGIONAL WEATHER ROUNDUP
NATIONAL WEATHER SERVICE ALBUQUERQUE NM
100 AM MDT MON JUL 24 2017

NOTE: "FAIR" MEANS FEW OR NO CLOUDS BELOW 12,000 FEET AGL WITH NO
       SIGNIFICANT WEATHER OR OBSTRUCTIONS TO VISION.

      THIS PRODUCT IS RELEASED AS TWO VERSIONS.  ONE VERSION NEAR
      THE TOP OF THE HOUR CONTAINING PRELIMINARY DATA FROM ALBUQUERQUE
      AND OTHER STATIONS.  A FINAL VERSION WITH ADDITIONAL DATA IS
      ISSUED ABOUT 10 MINUTES AFTER THE HOUR.

NMZ501-503-504-510>518-240800-
NORTHWEST PLATEAU/NORTHCENTRAL MOUNTAINS

CITY           SKY/WX    TMP DP  RH WIND       PRES   REMARKS
FARMINGTON     LGT RAIN  67  63  87 N5        30.19F
LOS ALAMOS     MOCLDY    67  49  52 SW9       30.32F
SANTA FE       FAIR      65  54  67 S5        30.26S
TAOS           FAIR      63  43  48 NE8       30.33S
ANGEL FIRE     FAIR      51  49  95 CALM      30.44F

$$
NMZ402-403-502-505>509-240800-
WESTCENTRAL MOUNTAINS/SOUTHWEST MOUNTAINS

CITY           SKY/WX    TMP DP  RH WIND       PRES   REMARKS
GALLUP         CLOUDY    71  54  54 S8        30.24R
GRANTS         CLOUDY    68  54  60 SE10      30.28S
SILVER CITY    FAIR      67  62  84 CALM      30.18S

$$
NMZ407-409-411-412-240800-
SOUTHERN DESERTS

CITY           SKY/WX    TMP DP  RH WIND       PRES   REMARKS
DEMING         MOCLDY    70  67  90 NE6       30.12R
LAS CRUCES     MOCLDY    69  67  92 N5        30.14R
HOLLOMAN AFB   MOCLDY    69  67  92 S6        30.12S
ALAMOGORDO     MOCLDY    66  66 100 CALM      30.12F
T OR C         FAIR      72  59  63 SW15      30.16R

$$
NMZ519>523-240800-
CENTRAL VALLEYS/CENTRAL HIGHLANDS

CITY           SKY/WX    TMP DP  RH WIND       PRES   REMARKS
ALBUQUERQUE    MOCLDY    71  59  65 SE5       30.19F
DOUBLE EAGLE   FAIR      68  57  67 CALM      30.23F
CLINES CORNERS FAIR      63  52  67 E3        30.32S
BELEN          NOT AVBL
SOCORRO        FAIR      68  64  87 W3        30.18R

$$
NMZ524>526-539-540-240800-
SOUTHCENTRAL MOUNTAINS

CITY           SKY/WX    TMP DP  RH WIND       PRES   REMARKS
RUIDOSO        FAIR      61  57  88 W3        30.31S

$$
NMZ527>531-240800-
NORTHEAST HIGHLANDS/NORTHEAST PLAINS

CITY           SKY/WX    TMP DP  RH WIND       PRES   REMARKS
LAS VEGAS      FAIR      58  54  86 NE3       30.31F
RATON          FAIR      59  57  93 NE7       30.28S
CLAYTON        MOCLDY    65  61  87 NE7       30.17F

$$
NMZ532>537-240800-
EASTCENTRAL PLAINS

CITY           SKY/WX    TMP DP  RH WIND       PRES   REMARKS
SANTA ROSA     FAIR      71  58  63 CALM      30.15S
TUCUMCARI      FAIR      69  65  86 W3        30.08F
CANNON AFB     FAIR      70  67  90 N6        30.12F
CLOVIS AIRPORT FAIR      70  64  81 N3        30.12S

$$
NMZ028-029-538-240800-
SOUTHEAST PLAINS

CITY           SKY/WX    TMP DP  RH WIND       PRES   REMARKS
ROSWELL        FAIR      74  64  71 N6        30.06S
ARTESIA        FAIR      77  64  65 SE7       30.06R
CARLSBAD       MOCLDY    71  70  96 CALM      30.03S


$$




USA.gov is the U.S. government's official web portal to all federal, state and local government web resources and services.